Home > Weather > Wismar > Past weeks

Flag for Germany Past Weather in Wismar, Mecklenburg-Western Pomerania, Germany — Yesterday and Last 2 Weeks

Now
57 °F

Partly sunny.


Feels Like: 55 °F
Forecast: 59 / 76 °F
Wind: 12 mph from Northeast

Location: Luebeck-Blankensee

Current Time: May 29, 2016 at 9:52:07 AM

Latest Report: May 29, 2016 at 9:20 AM


Visibility: 4 mi

Pressure: 29.86 "Hg

Humidity: 94%

Dew Point: 55 °F

Location of WismarLocation

Past Weather in Wismar — Graph

°F

Wismar Temperature Yesterday

Maximum temperature yesterday: 68 °F (at 1:20 PM)
Minimum temperature yesterday: 52 °F (at 6:50 AM)
Average temperature yesterday: 64 °F

High & Low Weather Summary for the Past Weeks

 TemperatureHumidityPressure
High82 °F (May 22, 3:20 PM)100% (May 21, 6:50 AM)30.07 "Hg (May 21, 6:50 AM)
Low41 °F (May 15, 6:50 AM)23% (May 19, 2:50 PM)29.68 "Hg (May 14, 8:20 AM)
Average59 °F72%29.91 "Hg
* Reported May 14 8:20 AM — May 29 8:20 AM, Wismar, Weather by CustomWeather, © 2016

Note: Actual official high and low records may vary slightly from our data, if they occured in-between our weather recording intervals... More about our weather records

Advertising

Wismar Weather History for the Previous 24 Hours

Scroll right to see more
 ConditionsComfort  
Time TempWeatherWind HumidityBarometerVisibility
8:20 AM
Sun, May 29
55 °FFog.10 mph100%29.89 "Hg2 mi
7:50 AM55 °FFog.12 mph100%29.89 "Hg2 mi
7:20 AM57 °FFog.8 mph94%29.89 "Hg1 mi
6:50 AM55 °FFog.10 mph100%29.89 "Hg2 mi
9:50 PM
Sat, May 28
57 °FSunny.8 mph88%29.95 "Hg10 mi
9:20 PM59 °FSunny.8 mph88%29.95 "Hg10 mi
8:50 PM61 °FSunny.8 mph83%29.95 "Hg10 mi
7:50 PM63 °FSunny.12 mph83%29.95 "Hg10 mi
7:20 PM64 °FSunny.12 mph73%29.95 "Hg10 mi
6:50 PM64 °FSunny.12 mph73%29.98 "Hg10 mi
6:20 PM66 °FSunny.12 mph68%29.98 "Hg10 mi
5:50 PM66 °FSunny.13 mph68%29.98 "Hg10 mi
5:20 PM66 °FSunny.14 mph64%29.98 "Hg10 mi
4:50 PM66 °FSunny.10 mph60%29.98 "Hg10 mi
4:20 PM68 °FSunny.10 mph60%29.98 "Hg10 mi
3:50 PM68 °FPassing clouds.13 mph60%29.98 "HgN/A
3:20 PM68 °FPassing clouds.13 mph60%30.01 "HgN/A
2:50 PM68 °FScattered clouds.12 mph64%30.01 "HgN/A
2:20 PM68 °FScattered clouds.8 mph60%30.01 "HgN/A
1:50 PM66 °FPassing clouds.9 mph60%30.01 "HgN/A
1:20 PM68 °FPassing clouds.7 mph56%30.01 "HgN/A
12:50 PM66 °FPassing clouds.7 mph60%30.01 "HgN/A
12:20 PM66 °FPassing clouds.8 mph60%30.01 "HgN/A
11:50 AM66 °FPassing clouds.8 mph60%30.01 "HgN/A
11:20 AM66 °FPassing clouds.7 mph56%30.01 "HgN/A
10:50 AM64 °FPassing clouds.7 mph56%30.04 "HgN/A
10:20 AM64 °FPassing clouds.6 mph60%30.04 "HgN/A
9:50 AM63 °FPassing clouds.8 mph64%30.04 "HgN/A
9:20 AM63 °FPassing clouds.8 mph64%30.04 "HgN/A
Weather by CustomWeather, © 2016

See weather overviewHow to use our weather pages